Starlink 11701

operational
NORAD ID: 63760 Int'l Des: 2025-089 Owner: SPXS Country: US Constellation: starlink
LEOCIRCULAR

Starlink 11701について

説明を読み込み中...

リアルタイム位置

3D地球を読み込み中...

次回通過

高度履歴

Altitude vs Time

uPlot chart will show altitude changes over time

軌道要素

1 63760U 25089K 26037.24250677 .00364476 00000-0 27039-2 0 9990
2 63760 42.9997 121.4408 0002456 262.7873 97.2716 15.70992215 45198
Epoch: Feb 6, 2026 • Age: 7 hours

現在のステータス

高度 354.9 km
速度 7.70 km/s
衛星直下点 12.59°N, 39.82°W
打ち上げ日 Apr 29, 2025
運用期間 0.7 years
タイプ internet

技術仕様

分類 Payload
質量 960.00 kg
乾燥質量 910.00 kg
総質量 960.00 kg
長さ 0.30 m
直径 4.10 m
スパン 29.00 m
形状 Box + pan
製造者 SPXS
バスタイプ Starlink V2MD
フェーズステータス In Orbit
所有者/国 SPXS/US

大規模コンステレーション

Loading constellations...